STARLINK-1923 (46754 NORAD) Tracking and Keplerian Element Data

This shows tracking and keplerian element data for the satellite.

Feedback or suggestion? Click here.




ElementValue
Catalog46754
NameSTARLINK-1923
Epoch Orbit1381
Epoch Day17.91667824
Epoch Year2021
RAAN106.8251
Inclination53.0581
Eccentricity0.0001252
Argument of Perigee77.7994
Mean Anonmoly250.0618
Mean Motion15.12462321
Decay Rate-0.01058388
L11 46754U 20074R 21017.91667824 -.01058388 00000-0 -64899-1 0 9995
L22 46754 53.0581 106.8251 0001252 77.7994 250.0618 15.12462321 13818

Live tracking and technical data element details for STARLINK-1923 (NORAD 46754). STARLINK-1923 can be tracked NOW for your location showing map with azimuth and elevation plus other details from your city location.

Track the satellite on the map from your city or location and see movement details for azimuth, elevation, latitude, longitude, range, height, and movement on the map or in text.







IsCatalogInMostPopularTable: catalog: 46754, numindb: 29
Update: records affected: 1



GetName: 46754 STARLINK-1923

Hit Count: updated at: Mon, 18 Jan 2021 16:59:13 GMT